Theta_e
342 335 336 336 336 335 330 330 330 327 326 327 325 321 322 324 325 326 328 330 332 335 336 336 335 332 328 330 332 331 331 332 332 333 336 338 339 340 339 338 337 336 337
336 335 336 336 336 336 331 331 331 328 326 328 326 323 323 324 325 325 326 327 332 333 333 331 326 325 328 330 332 333 333 331 330 331 334 336 338 340 341 337 336 335 336
334 335 336 336 336 336 332 331 331 331 328 328 327 324 323 325 325 325 324 325 328 327 324 321 322 324 327 329 332 334 335 334 333 334 332 335 338 339 337 334 334 334 334
334 335 335 335 336 336 334 332 332 332 329 328 327 325 324 325 325 325 323 323 322 322 322 322 323 324 325 327 330 333 334 337 339 341 339 333 334 336 334 332 333 334 335
334 335 335 335 335 336 336 332 333 334 332 329 328 326 324 325 325 323 322 323 323 322 322 322 322 324 324 325 328 329 330 333 336 337 339 340 333 331 330 330 332 333 334
335 335 335 334 334 335 336 333 334 334 334 330 329 327 325 325 325 323 323 324 322 322 321 322 322 323 323 324 326 328 329 330 332 334 339 340 333 329 327 327 330 336 336
335 335 335 334 334 335 336 334 336 334 336 332 329 329 326 325 325 323 323 324 323 322 322 322 322 322 322 322 324 326 328 330 331 336 339 339 335 333 327 326 332 334 335
334 335 334 334 334 335 335 335 336 335 337 334 330 330 327 325 324 323 323 323 323 322 322 322 322 322 322 322 322 324 325 327 329 333 337 338 339 335 330 327 328 332 333
335 335 334 334 334 335 336 336 337 336 337 335 331 331 328 326 324 323 323 323 322 323 324 323 323 323 324 323 322 321 321 322 324 327 328 334 338 337 332 328 327 328 330
340 336 334 334 335 336 337 337 337 337 337 335 332 331 330 327 326 325 324 323 323 324 324 324 323 323 322 321 321 319 318 318 318 321 326 331 338 338 335 329 329 328 328
343 341 337 334 334 335 336 337 337 337 337 335 332 333 331 329 327 327 325 325 325 324 324 324 323 322 321 320 319 317 316 314 314 316 325 330 332 338 335 331 330 328 327
343 343 342 337 334 335 335 336 337 337 336 335 333 334 332 330 329 329 329 328 327 327 326 325 325 324 324 323 322 320 320 321 321 314 327 327 328 335 336 332 331 329 328
347 346 344 340 335 334 335 335 334 335 335 335 334 335 332 330 331 330 330 331 332 333 332 329 328 328 328 328 327 325 323 324 324 325 325 325 327 334 334 333 332 330 329
349 349 348 344 337 334 334 334 333 334 334 335 335 334 331 332 332 333 334 335 335 336 335 334 332 331 335 333 329 329 330 330 327 323 323 323 324 331 332 332 332 331 330
349 349 348 346 338 334 335 334 333 333 333 333 333 332 331 332 333 337 338 339 339 338 337 337 336 335 336 336 336 333 332 334 333 332 332 332 328 325 325 326 327 327 327
348 349 348 347 339 335 335 334 333 332 332 332 332 331 331 332 333 336 341 340 340 339 339 338 337 337 337 338 338 336 336 335 335 334 333 333 332 329 327 327 327 327 331
347 349 349 348 345 338 336 337 340 339 335 333 332 332 332 333 335 336 341 341 341 339 340 339 338 339 339 338 338 336 335 335 335 335 335 334 333 333 332 332 330 328 327
344 349 350 349 348 345 343 343 344 344 342 340 337 335 334 335 339 339 341 341 341 340 339 339 339 338 337 337 337 336 335 335 334 334 333 333 333 333 331 326 328 331 330
339 347 349 349 348 347 346 347 346 345 345 343 340 340 340 339 340 342 341 340 340 340 339 338 338 337 337 337 336 335 334 330 324 321 320 320 318 319 319 319 319 322 325
337 346 348 349 348 348 347 347 346 346 344 343 343 344 343 342 342 342 341 341 340 339 339 338 337 337 336 334 331 328 325 322 318 316 315 316 320 319 319 320 321 322 321
343 347 348 348 348 347 346 345 345 344 344 343 341 343 344 342 341 341 341 340 340 339 338 338 336 334 332 331 319 317 315 310 309 309 311 314 315 313 307 306 310 317 318
344 346 347 348 348 347 346 345 344 342 341 340 340 340 340 339 341 341 341 340 339 337 336 336 335 329 320 316 314 311 308 310 309 310 309 306 305 306 307 309 308 307 308
342 345 347 347 348 347 346 345 344 342 341 340 339 338 339 339 340 340 340 339 337 336 333 329 323 319 314 312 311 310 309 308 307 306 307 305 306 308 307 306 308 309 310
335 343 346 346 347 346 346 344 343 341 340 339 338 338 339 337 338 340 339 337 335 324 320 317 314 312 310 309 308 307 309 309 307 307 308 307 307 307 308 309 310 310 310
328 343 345 346 346 345 344 343 342 340 339 339 338 338 337 337 338 336 332 326 320 316 314 311 309 308 308 308 308 308 308 308 309 306 308 306 308 308 308 308 307 307 307
328 336 346 346 346 344 344 342 341 339 339 337 337 337 335 329 325 322 320 318 315 311 308 308 307 307 307 307 307 308 309 309 308 307 306 306 306 305 306 306 306 305 304
Wind_Speed
24 32 29 28 27 26 24 23 21 20 20 19 18 18 19 19 20 19 18 17 17 15 13 12 10 9 10 11 13 14 15 16 16 16 16 16 14 14 15 13 14 15 14
38 34 30 28 27 27 25 23 22 20 19 18 17 17 17 17 17 17 16 15 15 14 12 10 9 10 11 12 13 13 14 15 16 15 13 13 13 13 11 11 11 12 12
41 34 31 29 28 27 26 24 22 21 19 17 16 15 16 16 16 15 14 14 13 12 11 10 10 10 11 12 12 12 13 14 16 14 11 10 11 12 11 10 10 10 11
39 35 32 30 28 27 26 24 22 21 19 17 16 15 14 14 14 13 12 11 12 11 11 11 10 10 10 10 10 9 10 12 12 10 9 6 7 8 8 8 9 9 10
38 35 32 30 28 28 27 25 23 21 19 17 16 14 13 13 13 13 12 10 10 10 10 10 10 10 9 9 8 7 7 8 6 3 2 6 5 7 7 6 7 6 7
37 34 31 29 28 28 27 26 23 21 19 18 16 14 13 12 12 12 11 10 9 9 9 8 9 9 9 8 7 5 5 4 2 2 2 10 10 9 5 3 5 7 6
36 33 30 28 27 27 27 27 24 22 20 19 18 16 14 12 11 10 10 9 9 8 8 8 8 8 8 7 6 5 4 3 1 4 4 11 9 8 5 2 7 8 7
35 32 30 27 26 27 27 27 25 23 21 20 19 17 15 14 12 11 9 8 8 8 7 7 7 7 6 6 6 5 4 4 3 2 4 4 13 10 7 2 6 8 8
31 32 30 28 26 26 27 27 25 24 22 21 20 19 17 15 14 12 11 9 8 7 7 7 6 6 5 5 5 5 5 5 5 4 2 6 12 15 11 7 7 7 9
30 29 30 29 28 27 27 26 25 24 23 22 22 20 18 17 15 14 12 10 9 8 7 6 6 5 4 4 4 4 4 5 7 6 3 4 6 16 13 10 9 9 10
29 29 30 30 30 29 28 27 25 24 23 23 22 21 20 19 18 16 14 12 11 9 8 7 6 5 5 5 5 5 4 5 6 8 6 4 6 15 15 12 11 11 11
30 31 30 32 33 31 30 29 28 26 26 26 25 24 22 20 19 17 15 14 12 11 9 8 7 6 6 5 5 6 5 4 6 8 6 7 8 14 17 15 14 14 14
38 33 33 33 34 34 33 32 30 29 28 27 26 25 23 21 19 18 17 16 15 13 11 10 9 8 7 8 7 5 6 6 7 5 7 9 7 12 16 16 16 17 18
35 37 34 33 37 37 35 34 33 31 30 30 29 26 25 24 22 20 19 18 17 16 13 11 11 9 6 5 6 7 7 8 10 12 13 14 10 10 16 18 18 19 20
31 37 36 34 38 40 37 36 34 34 33 31 30 29 27 26 25 22 20 19 19 17 15 13 11 12 10 9 9 11 12 11 11 12 14 15 16 17 17 19 21 23 24
33 37 38 37 37 39 40 37 37 36 34 32 32 31 29 27 25 24 21 21 20 20 15 13 12 12 13 12 12 12 14 15 15 15 16 17 17 17 19 22 24 26 26
39 40 41 40 38 39 41 37 36 34 33 32 33 32 30 28 26 25 22 22 20 19 16 15 15 12 13 14 14 15 15 14 14 17 18 20 21 23 24 25 27 29 30
38 37 41 40 40 40 41 39 38 36 32 30 29 31 31 29 26 26 25 23 21 20 20 19 18 18 15 15 16 16 17 17 19 22 23 24 25 27 29 31 29 31 32
38 40 40 41 43 42 40 37 36 35 33 30 28 29 29 29 28 27 26 23 20 18 17 18 18 19 18 17 17 18 20 21 21 20 21 21 22 22 24 25 26 26 25
39 42 43 43 42 41 39 36 35 31 32 29 27 28 29 29 29 27 25 23 21 19 19 19 18 16 14 14 13 16 19 20 22 24 25 24 24 24 23 23 23 23 24
37 37 39 39 40 39 36 35 35 37 36 32 28 31 28 26 26 26 24 22 21 20 20 18 16 13 11 9 8 11 17 20 24 22 19 18 17 15 20 24 23 24 27
40 41 39 42 44 44 39 37 27 30 33 32 28 26 28 27 29 27 25 24 22 20 18 19 15 11 7 4 2 2 4 6 5 4 10 19 21 23 22 19 21 25 27
34 39 43 47 49 46 39 34 24 26 23 28 30 28 27 26 28 27 27 23 21 19 19 17 14 12 7 4 3 3 1 3 6 13 10 21 18 17 20 24 21 25 26
33 41 43 46 47 44 43 40 39 34 27 24 31 30 25 24 24 25 24 22 22 21 19 15 11 9 7 5 4 5 6 4 3 5 7 12 23 18 22 23 21 24 28
33 35 41 43 41 40 45 41 40 30 27 27 30 29 29 25 24 24 24 24 22 19 14 11 8 7 7 3 4 3 6 9 15 8 5 6 20 20 19 21 25 31 32
32 31 31 35 35 38 41 39 39 35 35 33 33 32 31 28 27 26 24 21 19 17 12 9 7 6 6 5 6 7 7 4 5 6 6 13 16 19 17 19 22 26 29
Wind_Direction
180 170 166 165 164 160 156 148 141 136 130 125 121 121 120 118 117 115 116 115 114 112 109 104 98 95 93 97 99 100 100 98 101 103 104 103 103 102 99 102 103 109 114
166 169 167 167 166 164 160 154 147 142 138 131 127 125 124 122 120 118 117 117 117 118 116 111 106 103 104 103 103 102 99 100 100 99 101 99 93 113 95 97 106 105 107
165 167 170 171 169 167 165 160 154 148 145 138 132 130 129 127 123 121 121 123 122 123 121 115 113 113 113 112 109 105 101 102 104 99 95 106 104 110 112 108 112 112 112
165 168 171 173 171 169 169 166 161 155 151 147 140 137 136 134 129 126 124 124 125 126 125 121 118 118 118 116 113 110 110 113 125 106 88 114 130 131 126 117 121 125 126
166 170 171 172 172 172 172 171 167 161 157 155 149 146 144 144 139 133 132 130 130 133 133 131 128 128 128 126 122 120 122 130 137 144 178 204 191 149 133 126 134 137 142
168 171 171 173 174 174 174 174 172 168 165 163 159 156 154 153 149 142 141 142 143 145 141 138 138 138 137 138 139 140 140 139 135 85 342 182 190 156 141 143 163 159 147
169 172 172 175 175 176 177 176 176 175 172 172 169 166 163 160 159 154 151 153 152 153 149 151 152 151 150 152 159 168 172 174 203 83 129 175 202 188 166 145 183 185 183
169 172 174 176 178 179 179 178 179 179 179 178 176 174 173 171 169 168 168 165 163 162 162 166 167 165 165 166 170 192 202 209 231 137 110 240 228 210 212 214 193 202 204
170 173 176 178 181 181 182 182 183 184 184 184 182 181 182 178 178 178 178 180 175 173 178 179 181 181 189 199 196 203 224 229 247 248 275 335 219 219 225 217 197 209 214
167 174 179 181 182 183 184 186 187 188 189 189 188 187 189 186 185 185 186 186 187 186 191 194 195 202 210 229 239 242 244 247 255 270 266 345 250 221 233 232 217 214 219
173 178 182 186 187 187 187 187 190 193 193 193 193 194 194 193 191 190 190 191 195 196 199 208 212 216 224 239 262 266 262 276 268 272 251 298 285 229 237 245 238 236 232
180 186 190 192 191 190 189 190 192 194 195 195 195 196 200 200 198 196 194 196 201 204 209 214 222 230 241 253 259 262 276 295 280 268 269 280 284 241 235 247 246 247 245
188 189 194 196 196 193 193 193 193 196 196 198 199 200 203 204 203 200 200 202 204 211 218 224 233 241 256 260 258 247 257 285 290 282 289 309 292 240 242 254 254 254 253
189 196 196 199 198 198 199 199 198 199 200 200 201 204 205 207 207 206 207 210 212 219 224 233 240 242 239 231 234 241 247 270 283 291 294 297 298 261 260 265 271 268 265
187 197 200 199 200 198 203 203 203 205 206 207 207 207 209 211 210 210 213 218 222 223 229 242 238 227 231 235 254 255 250 260 268 278 284 290 284 275 271 271 275 279 279
196 197 200 200 201 199 204 206 207 209 211 212 213 213 211 216 215 216 218 221 227 228 235 234 243 245 243 249 243 248 257 262 268 271 271 278 280 281 281 282 282 279 273
202 201 199 200 201 199 204 205 206 206 209 213 217 217 214 214 215 215 216 219 225 224 231 234 236 246 250 248 243 248 259 264 268 268 269 273 274 274 277 280 281 279 278
198 192 197 197 200 200 202 203 208 209 207 211 215 217 217 217 214 213 218 223 223 222 226 231 235 241 246 245 246 253 259 264 273 276 276 276 277 279 282 285 285 282 281
196 192 190 193 198 199 202 206 207 207 206 208 210 213 214 215 215 218 223 224 218 219 222 225 229 233 237 239 248 258 264 271 275 277 279 282 285 286 292 294 295 292 290
196 192 190 191 194 193 197 199 200 201 202 202 208 212 213 213 215 221 222 220 219 217 216 221 225 224 231 244 254 265 271 277 280 280 286 289 290 295 299 302 304 302 300
183 181 184 184 189 187 189 189 195 199 198 202 208 211 206 210 214 215 214 212 206 213 214 213 213 217 223 242 280 283 279 280 276 277 278 289 300 307 308 307 306 307 303
180 184 182 187 188 190 191 193 193 194 199 201 202 210 215 220 217 213 212 208 209 209 209 209 209 194 196 227 275 351 329 319 276 280 305 297 302 306 305 303 304 304 303
179 183 186 188 192 189 187 185 185 187 190 196 198 203 204 211 211 213 210 209 202 204 198 190 198 209 199 203 214 207 285 255 331 301 308 300 297 293 301 302 303 304 306
196 189 188 188 190 187 184 181 182 180 180 195 188 199 199 204 206 203 196 198 194 184 185 193 202 222 228 220 267 259 244 271 253 314 302 289 288 293 300 308 303 298 297
205 190 190 189 187 184 185 183 180 181 185 182 183 191 194 197 199 189 185 181 179 182 187 200 207 214 243 250 266 272 281 266 265 244 293 285 304 298 295 292 295 294 294
208 195 189 185 184 183 182 184 183 180 177 171 178 186 181 178 175 179 182 186 191 193 193 200 205 223 229 252 263 269 271 276 280 281 281 290 287 288 295 289 290 290 294